Year,Month,Day,Hour,Minute,Value (Times are PST for temperature in C)
2017,09,05,00,00,19.90
2017,09,05,00,01,19.90
2017,09,05,00,02,19.90
2017,09,05,00,03,19.80
2017,09,05,00,04,19.80
2017,09,05,00,05,19.80
2017,09,05,00,06,19.70
2017,09,05,00,07,19.70
2017,09,05,00,08,19.70
2017,09,05,00,09,19.60
2017,09,05,00,10,19.60
2017,09,05,00,11,19.60
2017,09,05,00,12,19.60
2017,09,05,00,13,19.60
2017,09,05,00,14,19.50
2017,09,05,00,15,19.50
2017,09,05,00,16,19.50
2017,09,05,00,17,19.60
2017,09,05,00,18,19.60
2017,09,05,00,19,19.60
2017,09,05,00,20,19.70
2017,09,05,00,21,19.70
2017,09,05,00,22,19.70
2017,09,05,00,23,19.80
2017,09,05,00,24,19.80
2017,09,05,00,25,19.90
2017,09,05,00,26,19.90
2017,09,05,00,27,19.90
2017,09,05,00,28,20.10
2017,09,05,00,29,20.10
2017,09,05,00,30,20.10
2017,09,05,00,31,20.20
2017,09,05,00,32,20.20
2017,09,05,00,33,20.20
2017,09,05,00,34,20.20
2017,09,05,00,35,20.20
2017,09,05,00,36,20.20
2017,09,05,00,37,20.20
2017,09,05,00,38,20.20
2017,09,05,00,39,20.20
2017,09,05,00,40,20.20
2017,09,05,00,41,20.20
2017,09,05,00,42,20.20
2017,09,05,00,43,20.30
2017,09,05,00,44,20.30
2017,09,05,00,45,20.30
2017,09,05,00,46,20.40
2017,09,05,00,47,20.40
2017,09,05,00,48,20.40
2017,09,05,00,49,20.50
2017,09,05,00,50,20.50
2017,09,05,00,51,20.50
2017,09,05,00,52,20.50
2017,09,05,00,53,20.50
2017,09,05,00,54,20.50
2017,09,05,00,55,20.50
2017,09,05,00,56,20.50
2017,09,05,00,57,20.50
2017,09,05,00,58,20.50
2017,09,05,00,59,20.50
2017,09,05,01,00,20.50
2017,09,05,01,01,20.50
2017,09,05,01,02,20.50
2017,09,05,01,03,20.50
2017,09,05,01,04,20.50
2017,09,05,01,05,20.50
2017,09,05,01,06,20.50
2017,09,05,01,07,20.50
2017,09,05,01,08,20.60
2017,09,05,01,09,20.60
2017,09,05,01,10,20.70
2017,09,05,01,11,20.80
2017,09,05,01,12,20.90
2017,09,05,01,13,21.00
2017,09,05,01,14,21.20
2017,09,05,01,15,21.40
2017,09,05,01,16,21.60
2017,09,05,01,17,21.70
2017,09,05,01,18,21.90
2017,09,05,01,19,22.10
2017,09,05,01,20,22.20
2017,09,05,01,21,22.40
2017,09,05,01,22,22.50
2017,09,05,01,23,22.60
2017,09,05,01,24,22.80
2017,09,05,01,25,22.90
2017,09,05,01,26,22.90
2017,09,05,01,27,23.00
2017,09,05,01,28,23.10
2017,09,05,01,29,23.20
2017,09,05,01,30,23.30
2017,09,05,01,31,23.30
2017,09,05,01,32,23.30
2017,09,05,01,33,23.40
2017,09,05,01,34,23.40
2017,09,05,01,35,23.50
2017,09,05,01,36,23.60
2017,09,05,01,37,23.60
2017,09,05,01,38,23.70
2017,09,05,01,39,23.70
2017,09,05,01,40,23.70
2017,09,05,01,41,23.70
2017,09,05,01,42,23.70
2017,09,05,01,43,23.70
2017,09,05,01,44,23.80
2017,09,05,01,45,23.80
2017,09,05,01,46,23.80
2017,09,05,01,47,23.80
2017,09,05,01,48,23.80
2017,09,05,01,49,23.80
2017,09,05,01,50,23.80
2017,09,05,01,51,23.80
2017,09,05,01,52,23.90
2017,09,05,01,53,23.90
2017,09,05,01,54,23.90
2017,09,05,01,55,23.90
2017,09,05,01,56,23.90
2017,09,05,01,57,23.90
2017,09,05,01,58,24.00
2017,09,05,01,59,24.10
2017,09,05,02,00,24.10
2017,09,05,02,01,24.10
2017,09,05,02,02,24.10
2017,09,05,02,03,24.10
2017,09,05,02,04,24.10
2017,09,05,02,05,24.10
2017,09,05,02,06,24.10
2017,09,05,02,07,24.10
2017,09,05,02,08,24.10
2017,09,05,02,09,24.10
2017,09,05,02,10,24.10
2017,09,05,02,11,24.10
2017,09,05,02,12,24.10
2017,09,05,02,13,24.10
2017,09,05,02,14,24.10
2017,09,05,02,15,24.10
2017,09,05,02,16,24.10
2017,09,05,02,17,24.10
2017,09,05,02,18,24.10
2017,09,05,02,19,24.10
2017,09,05,02,20,24.10
2017,09,05,02,21,24.10
2017,09,05,02,22,24.10
2017,09,05,02,23,24.10
2017,09,05,02,24,24.10
2017,09,05,02,25,24.10
2017,09,05,02,26,24.00
2017,09,05,02,27,23.90
2017,09,05,02,28,23.90
2017,09,05,02,29,23.90
2017,09,05,02,30,23.90
2017,09,05,02,31,23.90
2017,09,05,02,32,23.90
2017,09,05,02,33,23.80
2017,09,05,02,34,23.80
2017,09,05,02,35,23.80
2017,09,05,02,36,23.80
2017,09,05,02,37,23.80
2017,09,05,02,38,23.80
2017,09,05,02,39,23.80
2017,09,05,02,40,23.80
2017,09,05,02,41,23.80
2017,09,05,02,42,23.80
2017,09,05,02,43,23.80
2017,09,05,02,44,23.80
2017,09,05,02,45,23.80
2017,09,05,02,46,23.80
2017,09,05,02,47,23.80
2017,09,05,02,48,23.80
2017,09,05,02,49,23.80
2017,09,05,02,50,23.80
2017,09,05,02,51,23.80
2017,09,05,02,52,23.80
2017,09,05,02,53,23.80
2017,09,05,02,54,23.80
2017,09,05,02,55,23.80
2017,09,05,02,56,23.80
2017,09,05,02,57,23.80
2017,09,05,02,58,23.80
2017,09,05,02,59,23.80
2017,09,05,03,00,23.80
2017,09,05,03,01,23.90
2017,09,05,03,02,23.90
2017,09,05,03,03,23.90
2017,09,05,03,04,23.90
2017,09,05,03,05,23.90
2017,09,05,03,06,23.90
2017,09,05,03,07,23.90
2017,09,05,03,08,23.90
2017,09,05,03,09,23.90
2017,09,05,03,10,23.90
2017,09,05,03,11,23.90
2017,09,05,03,12,23.90
2017,09,05,03,13,23.90
2017,09,05,03,14,23.90
2017,09,05,03,15,23.90
2017,09,05,03,16,23.90
2017,09,05,03,17,23.90
2017,09,05,03,18,23.90
2017,09,05,03,19,23.90
2017,09,05,03,20,23.90
2017,09,05,03,21,23.90
2017,09,05,03,22,23.90
2017,09,05,03,23,23.90
2017,09,05,03,24,23.90
2017,09,05,03,25,23.90
2017,09,05,03,26,23.90
2017,09,05,03,27,23.90
2017,09,05,03,28,23.90
2017,09,05,03,29,23.90
2017,09,05,03,30,23.90
2017,09,05,03,31,23.90
2017,09,05,03,32,24.00
2017,09,05,03,33,24.10
2017,09,05,03,34,24.10
2017,09,05,03,35,24.10
2017,09,05,03,36,24.10
2017,09,05,03,37,24.10
2017,09,05,03,38,24.10
2017,09,05,03,39,24.00
2017,09,05,03,40,23.90
2017,09,05,03,41,23.90
2017,09,05,03,42,23.90
2017,09,05,03,43,23.90
2017,09,05,03,44,23.90
2017,09,05,03,45,23.90
2017,09,05,03,46,23.90
2017,09,05,03,47,23.90
2017,09,05,03,48,23.90
2017,09,05,03,49,23.90
2017,09,05,03,50,23.90
2017,09,05,03,51,23.80
2017,09,05,03,52,23.80
2017,09,05,03,53,23.80
2017,09,05,03,54,23.70
2017,09,05,03,55,23.70
2017,09,05,03,56,23.70
2017,09,05,03,57,23.70
2017,09,05,03,58,23.70
2017,09,05,03,59,23.70
2017,09,05,04,00,23.70
2017,09,05,04,01,23.70
2017,09,05,04,02,23.70
2017,09,05,04,03,23.70
2017,09,05,04,04,23.70
2017,09,05,04,05,23.70
2017,09,05,04,06,23.70
2017,09,05,04,07,23.70
2017,09,05,04,08,23.70
2017,09,05,04,09,23.70
2017,09,05,04,10,23.70
2017,09,05,04,11,23.70
2017,09,05,04,12,23.70
2017,09,05,04,13,23.70
2017,09,05,04,14,23.70
2017,09,05,04,15,23.70
2017,09,05,04,16,23.70
2017,09,05,04,17,23.70
2017,09,05,04,18,23.70
2017,09,05,04,19,23.70
2017,09,05,04,20,23.80
2017,09,05,04,21,23.80
2017,09,05,04,22,23.80
2017,09,05,04,23,23.80
2017,09,05,04,24,23.80
2017,09,05,04,25,23.80
2017,09,05,04,26,23.80
2017,09,05,04,27,23.80
2017,09,05,04,28,23.80
2017,09,05,04,29,23.80
2017,09,05,04,30,23.80
2017,09,05,04,31,23.80
2017,09,05,04,32,23.80
2017,09,05,04,33,23.80
2017,09,05,04,34,23.80
2017,09,05,04,35,23.80
2017,09,05,04,36,23.90
2017,09,05,04,37,23.90
2017,09,05,04,38,23.80
2017,09,05,04,39,23.80
2017,09,05,04,40,23.80
2017,09,05,04,41,23.80
2017,09,05,04,42,23.80
2017,09,05,04,43,23.80
2017,09,05,04,44,23.80
2017,09,05,04,45,23.80
2017,09,05,04,46,23.80
2017,09,05,04,47,23.80
2017,09,05,04,48,23.80
2017,09,05,04,49,23.80
2017,09,05,04,50,23.80
2017,09,05,04,51,23.80
2017,09,05,04,52,23.80
2017,09,05,04,53,23.80
2017,09,05,04,54,23.80
2017,09,05,04,55,23.80
2017,09,05,04,56,23.80
2017,09,05,04,57,23.80
2017,09,05,04,58,23.80
2017,09,05,04,59,23.80
2017,09,05,05,00,23.80
2017,09,05,05,01,23.80
2017,09,05,05,02,23.80
2017,09,05,05,03,23.80
2017,09,05,05,04,23.80
2017,09,05,05,05,23.80
2017,09,05,05,06,23.80
2017,09,05,05,07,23.80
2017,09,05,05,08,23.90
2017,09,05,05,09,23.90
2017,09,05,05,10,23.90
2017,09,05,05,11,23.90
2017,09,05,05,12,23.90
2017,09,05,05,13,23.90
2017,09,05,05,14,23.90
2017,09,05,05,15,24.00
2017,09,05,05,16,24.10
2017,09,05,05,17,24.10
2017,09,05,05,18,24.10
2017,09,05,05,19,24.10
2017,09,05,05,20,24.10
2017,09,05,05,21,24.10
2017,09,05,05,22,24.10
2017,09,05,05,23,24.10
2017,09,05,05,24,24.10
2017,09,05,05,25,24.10
2017,09,05,05,26,24.10
2017,09,05,05,27,24.10
2017,09,05,05,28,24.10
2017,09,05,05,29,24.10
2017,09,05,05,30,24.10
2017,09,05,05,31,24.10
2017,09,05,05,32,24.10
2017,09,05,05,33,24.10
2017,09,05,05,34,24.10
2017,09,05,05,35,24.10
2017,09,05,05,36,24.10
2017,09,05,05,37,24.10
2017,09,05,05,38,24.10
2017,09,05,05,39,24.10
2017,09,05,05,40,24.10
2017,09,05,05,41,24.10
2017,09,05,05,42,24.10
2017,09,05,05,43,24.10
2017,09,05,05,44,24.10
2017,09,05,05,45,24.10
2017,09,05,05,46,24.10
2017,09,05,05,47,24.10
2017,09,05,05,48,24.20
2017,09,05,05,49,24.20
2017,09,05,05,50,24.20
2017,09,05,05,51,24.20
2017,09,05,05,52,24.20
2017,09,05,05,53,24.20
2017,09,05,05,54,24.20
2017,09,05,05,55,24.20
2017,09,05,05,56,24.20
2017,09,05,05,57,24.20
2017,09,05,05,58,24.30
2017,09,05,05,59,24.30
2017,09,05,06,00,24.30
2017,09,05,06,01,24.30
2017,09,05,06,02,24.30
2017,09,05,06,03,24.30
2017,09,05,06,04,24.30
2017,09,05,06,05,24.30
2017,09,05,06,06,24.30
2017,09,05,06,07,24.30
2017,09,05,06,08,24.30
2017,09,05,06,09,24.30
2017,09,05,06,10,24.20
2017,09,05,06,11,24.30
2017,09,05,06,12,24.30
2017,09,05,06,13,24.30
2017,09,05,06,14,24.30
2017,09,05,06,15,24.30
2017,09,05,06,16,24.30
2017,09,05,06,17,24.30
2017,09,05,06,18,24.30
2017,09,05,06,19,24.30
2017,09,05,06,20,24.30
2017,09,05,06,21,24.30
2017,09,05,06,22,24.30
2017,09,05,06,23,24.30
2017,09,05,06,24,24.30
2017,09,05,06,25,24.30
2017,09,05,06,26,24.30
2017,09,05,06,27,24.30
2017,09,05,06,28,24.30
2017,09,05,06,29,24.30
2017,09,05,06,30,24.30
2017,09,05,06,31,24.30
2017,09,05,06,32,24.30
2017,09,05,06,33,24.30
2017,09,05,06,34,24.30
2017,09,05,06,35,24.30
2017,09,05,06,36,24.30
2017,09,05,06,37,24.20
2017,09,05,06,38,24.20
2017,09,05,06,39,24.20
2017,09,05,06,40,24.20
2017,09,05,06,41,24.20
2017,09,05,06,42,24.20
2017,09,05,06,43,24.20
2017,09,05,06,44,24.10
2017,09,05,06,45,24.10
2017,09,05,06,46,24.10
2017,09,05,06,47,24.10
2017,09,05,06,48,24.10
2017,09,05,06,49,24.10
2017,09,05,06,50,24.10
2017,09,05,06,51,24.10
2017,09,05,06,52,24.10
2017,09,05,06,53,24.10
2017,09,05,06,54,24.10
2017,09,05,06,55,24.10
2017,09,05,06,56,24.10
2017,09,05,06,57,24.10
2017,09,05,06,58,24.10
2017,09,05,06,59,23.90
2017,09,05,07,00,23.90
2017,09,05,07,01,23.90
2017,09,05,07,02,23.90
2017,09,05,07,03,23.90
2017,09,05,07,04,23.80
2017,09,05,07,05,23.80
2017,09,05,07,06,23.80
2017,09,05,07,07,23.70
2017,09,05,07,08,23.70
2017,09,05,07,09,23.70
2017,09,05,07,10,23.70
2017,09,05,07,11,23.70
2017,09,05,07,12,23.70
2017,09,05,07,13,23.70
2017,09,05,07,14,23.70
2017,09,05,07,15,23.70
2017,09,05,07,16,23.60
2017,09,05,07,17,23.60
2017,09,05,07,18,23.60
2017,09,05,07,19,23.60
2017,09,05,07,20,23.60
2017,09,05,07,21,23.70
2017,09,05,07,22,23.70
2017,09,05,07,23,23.70
2017,09,05,07,24,23.70
2017,09,05,07,25,23.70
2017,09,05,07,26,23.70
2017,09,05,07,27,23.70
2017,09,05,07,28,23.70
2017,09,05,07,29,23.70
2017,09,05,07,30,23.70
2017,09,05,07,31,23.70
2017,09,05,07,32,23.70
2017,09,05,07,33,23.80
2017,09,05,07,34,23.80
2017,09,05,07,35,23.80
2017,09,05,07,36,23.80
2017,09,05,07,37,23.90
2017,09,05,07,38,23.90
2017,09,05,07,39,23.90
2017,09,05,07,40,23.90
2017,09,05,07,41,23.90
2017,09,05,07,42,24.00
2017,09,05,07,43,24.10
2017,09,05,07,44,24.10
2017,09,05,07,45,24.10
2017,09,05,07,46,24.10
2017,09,05,07,47,24.10
2017,09,05,07,48,24.20
2017,09,05,07,49,24.20
2017,09,05,07,50,24.20
2017,09,05,07,51,24.30
2017,09,05,07,52,24.30
2017,09,05,07,53,24.30
2017,09,05,07,54,24.30
2017,09,05,07,55,24.30
2017,09,05,07,56,24.30
2017,09,05,07,57,24.30
2017,09,05,07,58,24.20
2017,09,05,07,59,24.20
2017,09,05,08,00,24.10
2017,09,05,08,01,24.10
2017,09,05,08,02,24.10
2017,09,05,08,03,24.00
2017,09,05,08,04,23.90
2017,09,05,08,05,23.90
2017,09,05,08,06,23.90
2017,09,05,08,07,23.80
2017,09,05,08,08,23.80
2017,09,05,08,09,23.80
2017,09,05,08,10,23.80
2017,09,05,08,11,23.90
2017,09,05,08,12,23.90
2017,09,05,08,13,23.90
2017,09,05,08,14,23.90
2017,09,05,08,15,24.00
2017,09,05,08,16,24.10
2017,09,05,08,17,24.10
2017,09,05,08,18,24.10
2017,09,05,08,19,24.10
2017,09,05,08,20,24.20
2017,09,05,08,21,24.20
2017,09,05,08,22,24.20
2017,09,05,08,23,24.30
2017,09,05,08,24,24.30
2017,09,05,08,25,24.30
2017,09,05,08,26,24.30
2017,09,05,08,27,24.30
2017,09,05,08,28,24.30
2017,09,05,08,29,24.30
2017,09,05,08,30,24.30
2017,09,05,08,31,24.30
2017,09,05,08,32,24.40
2017,09,05,08,33,24.40
2017,09,05,08,34,24.40
2017,09,05,08,35,24.40
2017,09,05,08,36,24.30
2017,09,05,08,37,24.30
2017,09,05,08,38,24.30
2017,09,05,08,39,24.30
2017,09,05,08,40,24.30
2017,09,05,08,41,24.30
2017,09,05,08,42,24.30
2017,09,05,08,43,24.30
2017,09,05,08,44,24.30
2017,09,05,08,45,24.30
2017,09,05,08,46,24.30
2017,09,05,08,47,24.20
2017,09,05,08,48,24.20
2017,09,05,08,49,24.20
2017,09,05,08,50,24.20
2017,09,05,08,51,24.20
2017,09,05,08,52,24.20
2017,09,05,08,53,24.20
2017,09,05,08,54,24.20
2017,09,05,08,55,24.20
2017,09,05,08,56,24.20
2017,09,05,08,57,24.30
2017,09,05,08,58,24.30
2017,09,05,08,59,24.40
2017,09,05,09,00,24.40
2017,09,05,09,01,24.50
2017,09,05,09,02,24.50
2017,09,05,09,03,24.60
2017,09,05,09,04,24.60
2017,09,05,09,05,24.70
2017,09,05,09,06,24.70
2017,09,05,09,07,24.70
2017,09,05,09,08,24.70
2017,09,05,09,09,24.70
2017,09,05,09,10,24.80
2017,09,05,09,11,24.80
2017,09,05,09,12,24.80
2017,09,05,09,13,24.80
2017,09,05,09,14,24.80
2017,09,05,09,15,24.80
2017,09,05,09,16,24.90
2017,09,05,09,17,24.90
2017,09,05,09,18,24.90
2017,09,05,09,19,24.90
2017,09,05,09,20,25.00
2017,09,05,09,21,25.00
2017,09,05,09,22,25.00
2017,09,05,09,23,25.10
2017,09,05,09,24,25.10
2017,09,05,09,25,25.10
2017,09,05,09,26,25.10
2017,09,05,09,27,25.10
2017,09,05,09,28,25.10
2017,09,05,09,29,25.10
2017,09,05,09,30,25.10
2017,09,05,09,31,25.00
2017,09,05,09,32,25.00
2017,09,05,09,33,25.00
2017,09,05,09,34,25.00
2017,09,05,09,35,25.00
2017,09,05,09,36,25.00
2017,09,05,09,37,25.00
2017,09,05,09,38,25.00
2017,09,05,09,39,25.00
2017,09,05,09,40,25.00
2017,09,05,09,41,25.00
2017,09,05,09,42,25.00
2017,09,05,09,43,25.00
2017,09,05,09,44,25.00
2017,09,05,09,45,25.00
2017,09,05,09,46,25.00
2017,09,05,09,47,25.00
2017,09,05,09,48,25.10
2017,09,05,09,49,25.10
2017,09,05,09,50,25.10
2017,09,05,09,51,25.10
2017,09,05,09,52,25.20
2017,09,05,09,53,25.20
2017,09,05,09,54,25.20
2017,09,05,09,55,25.30
2017,09,05,09,56,25.30
2017,09,05,09,57,25.30
2017,09,05,09,58,25.40
2017,09,05,09,59,25.40
2017,09,05,10,00,25.40
2017,09,05,10,01,25.40
2017,09,05,10,02,25.40
2017,09,05,10,03,25.40
2017,09,05,10,04,25.40
2017,09,05,10,05,25.40
2017,09,05,10,06,25.40
2017,09,05,10,07,25.40
2017,09,05,10,08,25.40
2017,09,05,10,09,25.50
2017,09,05,10,10,25.50
2017,09,05,10,11,25.50
2017,09,05,10,12,25.50
2017,09,05,10,13,25.60
2017,09,05,10,14,25.60
2017,09,05,10,15,25.60
2017,09,05,10,16,25.70
2017,09,05,10,17,25.70
2017,09,05,10,18,25.70
2017,09,05,10,19,25.70
2017,09,05,10,20,25.70
2017,09,05,10,21,25.80
2017,09,05,10,22,25.80
2017,09,05,10,23,25.80
2017,09,05,10,24,25.80
2017,09,05,10,25,25.80
2017,09,05,10,26,25.80
2017,09,05,10,27,25.80
2017,09,05,10,28,25.80
2017,09,05,10,29,25.90
2017,09,05,10,30,25.90
2017,09,05,10,31,25.90
2017,09,05,10,32,25.90
2017,09,05,10,33,25.90
2017,09,05,10,34,25.90
2017,09,05,10,35,25.90
2017,09,05,10,36,25.90
2017,09,05,10,37,26.00
2017,09,05,10,38,26.00
2017,09,05,10,39,26.00
2017,09,05,10,40,26.00
2017,09,05,10,41,26.00
2017,09,05,10,42,26.10
2017,09,05,10,43,26.10
2017,09,05,10,44,26.10
2017,09,05,10,45,26.20
2017,09,05,10,46,26.20
2017,09,05,10,47,26.20
2017,09,05,10,48,26.30
2017,09,05,10,49,26.30
2017,09,05,10,50,26.40
2017,09,05,10,51,26.40
2017,09,05,10,52,26.60
2017,09,05,10,53,26.60
2017,09,05,10,54,26.60
2017,09,05,10,55,26.70
2017,09,05,10,56,26.70
2017,09,05,10,57,26.80
2017,09,05,10,58,26.80
2017,09,05,10,59,26.80
2017,09,05,11,00,26.90
2017,09,05,11,01,26.90
2017,09,05,11,02,26.80
2017,09,05,11,03,26.90
2017,09,05,11,04,26.90
2017,09,05,11,05,26.90
2017,09,05,11,06,26.90
2017,09,05,11,07,27.00
2017,09,05,11,08,27.10
2017,09,05,11,09,27.10
2017,09,05,11,10,27.20
2017,09,05,11,11,27.20
2017,09,05,11,12,27.20
2017,09,05,11,13,27.20
2017,09,05,11,14,27.20
2017,09,05,11,15,27.20
2017,09,05,11,16,27.20
2017,09,05,11,17,27.20
2017,09,05,11,18,27.20
2017,09,05,11,19,27.20
2017,09,05,11,20,27.20
2017,09,05,11,21,27.20
2017,09,05,11,22,27.20
2017,09,05,11,23,27.20
2017,09,05,11,24,27.30
2017,09,05,11,25,27.30
2017,09,05,11,26,27.30
2017,09,05,11,27,27.30
2017,09,05,11,28,27.30
2017,09,05,11,29,27.30
2017,09,05,11,30,27.30
2017,09,05,11,31,27.30
2017,09,05,11,32,27.30
2017,09,05,11,33,27.30
2017,09,05,11,34,27.30
2017,09,05,11,35,27.30
2017,09,05,11,36,27.30
2017,09,05,11,37,27.40
2017,09,05,11,38,27.40
2017,09,05,11,39,27.40
2017,09,05,11,40,27.50
2017,09,05,11,41,27.60
2017,09,05,11,42,27.60
2017,09,05,11,43,27.60
2017,09,05,11,44,27.70
2017,09,05,11,45,27.70
2017,09,05,11,46,27.70
2017,09,05,11,47,27.80
2017,09,05,11,48,27.80
2017,09,05,11,49,27.80
2017,09,05,11,50,27.90
2017,09,05,11,51,27.90
2017,09,05,11,52,27.90
2017,09,05,11,53,28.00
2017,09,05,11,54,28.00
2017,09,05,11,55,28.00
2017,09,05,11,56,28.00
2017,09,05,11,57,28.00
2017,09,05,11,58,28.00
2017,09,05,11,59,28.10
2017,09,05,12,00,28.10
2017,09,05,12,01,28.10
2017,09,05,12,02,28.10
2017,09,05,12,03,28.10
2017,09,05,12,04,28.10
2017,09,05,12,05,28.10
2017,09,05,12,06,28.20
2017,09,05,12,07,28.20
2017,09,05,12,08,28.20
2017,09,05,12,09,28.20
2017,09,05,12,10,28.20
2017,09,05,12,11,28.20
2017,09,05,12,12,28.20
2017,09,05,12,13,28.30
2017,09,05,12,14,28.30
2017,09,05,12,15,28.30
2017,09,05,12,16,28.40
2017,09,05,12,17,28.40
2017,09,05,12,18,28.40
2017,09,05,12,19,28.50
2017,09,05,12,20,28.60
2017,09,05,12,21,28.60
2017,09,05,12,22,28.70
2017,09,05,12,23,28.70
2017,09,05,12,24,28.80
2017,09,05,12,25,28.80
2017,09,05,12,26,28.90
2017,09,05,12,27,28.90
2017,09,05,12,28,28.90
2017,09,05,12,29,28.90
2017,09,05,12,30,28.90
2017,09,05,12,31,28.90
2017,09,05,12,32,28.90
2017,09,05,12,33,28.90
2017,09,05,12,34,28.90
2017,09,05,12,35,28.90
2017,09,05,12,36,28.90
2017,09,05,12,37,28.90
2017,09,05,12,38,28.90
2017,09,05,12,39,28.90
2017,09,05,12,40,28.80
2017,09,05,12,41,28.80
2017,09,05,12,42,28.80
2017,09,05,12,43,28.70
2017,09,05,12,44,28.70
2017,09,05,12,45,28.60
2017,09,05,12,46,28.60
2017,09,05,12,47,28.60
2017,09,05,12,48,28.40
2017,09,05,12,49,28.40
2017,09,05,12,50,28.40
2017,09,05,12,51,28.30
2017,09,05,12,52,28.30
2017,09,05,12,53,28.20
2017,09,05,12,54,28.20
2017,09,05,12,55,28.10
2017,09,05,12,56,28.10
2017,09,05,12,57,28.00
2017,09,05,12,58,28.00
2017,09,05,12,59,28.00
2017,09,05,13,00,28.00
2017,09,05,13,01,28.00
2017,09,05,13,02,28.00
2017,09,05,13,03,28.00
2017,09,05,13,04,28.00
2017,09,05,13,05,28.00
2017,09,05,13,06,28.00
2017,09,05,13,07,28.00
2017,09,05,13,08,28.00
2017,09,05,13,09,28.00
2017,09,05,13,10,28.00
2017,09,05,13,11,28.00
2017,09,05,13,12,28.00
2017,09,05,13,13,27.90
2017,09,05,13,14,27.90
2017,09,05,13,15,27.90
2017,09,05,13,16,27.90
2017,09,05,13,17,27.90
2017,09,05,13,18,27.90
2017,09,05,13,19,27.90
2017,09,05,13,20,28.00
2017,09,05,13,21,28.00
2017,09,05,13,22,28.00
2017,09,05,13,23,27.90
2017,09,05,13,24,27.90
2017,09,05,13,25,27.90
2017,09,05,13,26,27.90
2017,09,05,13,27,27.90
2017,09,05,13,28,27.80
2017,09,05,13,29,27.80
2017,09,05,13,30,27.80
2017,09,05,13,31,27.80
2017,09,05,13,32,27.80
2017,09,05,13,33,27.80
2017,09,05,13,34,27.80
2017,09,05,13,35,27.80
2017,09,05,13,36,27.80
2017,09,05,13,37,27.80
2017,09,05,13,38,27.80
2017,09,05,13,39,27.80
2017,09,05,13,40,27.80
2017,09,05,13,41,27.80
2017,09,05,13,42,27.80
2017,09,05,13,43,27.80
2017,09,05,13,44,27.70
2017,09,05,13,45,27.70
2017,09,05,13,46,27.70
2017,09,05,13,47,27.70
2017,09,05,13,48,27.70
2017,09,05,13,49,27.70
2017,09,05,13,50,27.70
2017,09,05,13,51,27.70
2017,09,05,13,52,27.70
2017,09,05,13,53,27.70
2017,09,05,13,54,27.70
2017,09,05,13,55,27.70
2017,09,05,13,56,27.70
2017,09,05,13,57,27.70
2017,09,05,13,58,27.80
2017,09,05,13,59,27.80
2017,09,05,14,00,27.80
2017,09,05,14,01,27.80
2017,09,05,14,02,27.80
2017,09,05,14,03,27.90
2017,09,05,14,04,27.90
2017,09,05,14,05,27.90
2017,09,05,14,06,27.90
2017,09,05,14,07,27.90
2017,09,05,14,08,27.90
2017,09,05,14,09,27.90
2017,09,05,14,10,27.90
2017,09,05,14,11,27.90
2017,09,05,14,12,27.90
2017,09,05,14,13,27.90
2017,09,05,14,14,27.90
2017,09,05,14,15,27.90
2017,09,05,14,16,27.90
2017,09,05,14,17,27.80
2017,09,05,14,18,27.80
2017,09,05,14,19,27.80
2017,09,05,14,20,27.80
2017,09,05,14,21,27.80
2017,09,05,14,22,27.80
2017,09,05,14,23,27.80
2017,09,05,14,24,27.80
2017,09,05,14,25,27.80
2017,09,05,14,26,27.80
2017,09,05,14,27,27.80
2017,09,05,14,28,27.80
2017,09,05,14,29,27.80
2017,09,05,14,30,27.80
2017,09,05,14,31,27.80
2017,09,05,14,32,27.80
2017,09,05,14,33,27.80
2017,09,05,14,34,27.70
2017,09,05,14,35,27.70
2017,09,05,14,36,27.70
2017,09,05,14,37,27.70
2017,09,05,14,38,27.70
2017,09,05,14,39,27.60
2017,09,05,14,40,27.60
2017,09,05,14,41,27.60
2017,09,05,14,42,27.40
2017,09,05,14,43,27.40
2017,09,05,14,44,27.30
2017,09,05,14,45,27.30
2017,09,05,14,46,27.30
2017,09,05,14,47,27.20
2017,09,05,14,48,27.10
2017,09,05,14,49,27.10
2017,09,05,14,50,27.00
2017,09,05,14,51,26.90
2017,09,05,14,52,26.80
2017,09,05,14,53,26.80
2017,09,05,14,54,26.70
2017,09,05,14,55,26.60
2017,09,05,14,56,26.60
2017,09,05,14,57,26.60
2017,09,05,14,58,26.40
2017,09,05,14,59,26.40
2017,09,05,15,00,26.40
2017,09,05,15,01,26.30
2017,09,05,15,02,26.30
2017,09,05,15,03,26.20
2017,09,05,15,04,26.20
2017,09,05,15,05,26.20
2017,09,05,15,06,26.20
2017,09,05,15,07,26.20
2017,09,05,15,08,26.30
2017,09,05,15,09,26.30
2017,09,05,15,10,26.30
2017,09,05,15,11,26.40
2017,09,05,15,12,26.50
2017,09,05,15,13,26.60
2017,09,05,15,14,26.60
2017,09,05,15,15,26.60
2017,09,05,15,16,26.60
2017,09,05,15,17,26.70
2017,09,05,15,18,26.70
2017,09,05,15,19,26.70
2017,09,05,15,20,26.70
2017,09,05,15,21,26.70
2017,09,05,15,22,26.80
2017,09,05,15,23,26.80
2017,09,05,15,24,26.80
2017,09,05,15,25,26.80
2017,09,05,15,26,26.80
2017,09,05,15,27,26.80
2017,09,05,15,28,26.80
2017,09,05,15,29,26.80
2017,09,05,15,30,26.80
2017,09,05,15,31,26.80
2017,09,05,15,32,26.80
2017,09,05,15,33,26.80
2017,09,05,15,34,26.80
2017,09,05,15,35,26.80
2017,09,05,15,36,26.80
2017,09,05,15,37,26.80
2017,09,05,15,38,26.80
2017,09,05,15,39,26.80
2017,09,05,15,40,26.80
2017,09,05,15,41,26.80
2017,09,05,15,42,26.80
2017,09,05,15,43,26.80
2017,09,05,15,44,26.80
2017,09,05,15,45,26.80
2017,09,05,15,46,26.80
2017,09,05,15,47,26.80
2017,09,05,15,48,26.80
2017,09,05,15,49,26.80
2017,09,05,15,50,26.80
2017,09,05,15,51,26.80
2017,09,05,15,52,26.70
2017,09,05,15,53,26.70
2017,09,05,15,54,26.70
2017,09,05,15,55,26.70
2017,09,05,15,56,26.80
2017,09,05,15,57,26.80
2017,09,05,15,58,26.80
2017,09,05,15,59,26.80
2017,09,05,16,00,26.80
2017,09,05,16,01,26.80
2017,09,05,16,02,26.80
2017,09,05,16,03,26.80
2017,09,05,16,04,26.80
2017,09,05,16,05,26.80
2017,09,05,16,06,26.80
2017,09,05,16,07,26.80
2017,09,05,16,08,26.90
2017,09,05,16,09,26.90
2017,09,05,16,10,26.90
2017,09,05,16,11,26.90
2017,09,05,16,12,26.90
2017,09,05,16,13,26.90
2017,09,05,16,14,26.90
2017,09,05,16,15,26.90
2017,09,05,16,16,26.90
2017,09,05,16,17,26.90
2017,09,05,16,18,26.90
2017,09,05,16,19,26.90
2017,09,05,16,20,27.00
2017,09,05,16,21,27.10
2017,09,05,16,22,27.10
2017,09,05,16,23,27.10
2017,09,05,16,24,27.10
2017,09,05,16,25,27.10
2017,09,05,16,26,27.10
2017,09,05,16,27,27.10
2017,09,05,16,28,27.10
2017,09,05,16,29,27.00
2017,09,05,16,30,26.90
2017,09,05,16,31,26.90
2017,09,05,16,32,26.90
2017,09,05,16,33,27.00
2017,09,05,16,34,27.10
2017,09,05,16,35,27.10
2017,09,05,16,36,27.10
2017,09,05,16,37,27.10
2017,09,05,16,38,27.10
2017,09,05,16,39,27.10
2017,09,05,16,40,27.20
2017,09,05,16,41,27.20
2017,09,05,16,42,27.20
2017,09,05,16,43,27.20
2017,09,05,16,44,27.20
2017,09,05,16,45,27.10
2017,09,05,16,46,27.10
2017,09,05,16,47,27.10
2017,09,05,16,48,27.10
2017,09,05,16,49,27.10
2017,09,05,16,50,27.10
2017,09,05,16,51,27.10
2017,09,05,16,52,27.00
2017,09,05,16,53,26.90
2017,09,05,16,54,26.90
2017,09,05,16,55,26.90
2017,09,05,16,56,26.90
2017,09,05,16,57,26.90
2017,09,05,16,58,26.90
2017,09,05,16,59,26.90
2017,09,05,17,00,26.90
2017,09,05,17,01,26.90
2017,09,05,17,02,26.90
2017,09,05,17,03,26.90
2017,09,05,17,04,26.90
2017,09,05,17,05,26.90
2017,09,05,17,06,26.90
2017,09,05,17,07,26.90
2017,09,05,17,08,26.90
2017,09,05,17,09,26.80
2017,09,05,17,10,26.80
2017,09,05,17,11,26.80
2017,09,05,17,12,26.80
2017,09,05,17,13,26.70
2017,09,05,17,14,26.70
2017,09,05,17,15,26.70
2017,09,05,17,16,26.70
2017,09,05,17,17,26.70
2017,09,05,17,18,26.60
2017,09,05,17,19,26.60